Time,TemperatureF,DewpointF,PressureIn,WindDirection,WindDirectionDegrees,WindSpeedMPH,WindSpeedGustMPH,Humidity,HourlyPrecipIn,Conditions,Clouds,dailyrainin,SoftwareType,DateUTC
2013-03-23 00:07:00,33.3,22.0,29.98,NW,311,3.0,12.0,63,0.00,,,0.00,weatherlink.com 1.10,2013-03-23 04:07:00,
2013-03-23 00:22:00,32.9,22.0,29.98,NW,316,6.0,9.0,64,0.00,,,0.00,weatherlink.com 1.10,2013-03-23 04:22:00,
2013-03-23 00:37:00,32.6,22.0,29.98,NW,309,2.0,8.0,64,0.00,,,0.00,weatherlink.com 1.10,2013-03-23 04:37:00,
2013-03-23 00:52:00,32.4,22.0,29.98,NW,304,2.0,13.0,65,0.00,,,0.00,weatherlink.com 1.10,2013-03-23 04:52:00,
2013-03-23 01:07:00,32.3,22.0,29.98,West,264,0.0,11.0,66,0.00,,,0.00,weatherlink.com 1.10,2013-03-23 05:07:00,
2013-03-23 01:22:00,31.8,22.0,29.99,NW,316,1.0,3.0,67,0.00,,,0.00,weatherlink.com 1.10,2013-03-23 05:22:00,
2013-03-23 01:37:00,31.6,22.0,29.99,West,276,0.0,3.0,68,0.00,,,0.00,weatherlink.com 1.10,2013-03-23 05:37:00,
2013-03-23 01:52:00,31.2,22.0,29.98,SSW,208,0.0,2.0,70,0.00,,,0.00,weatherlink.com 1.10,2013-03-23 05:52:00,
2013-03-23 02:07:00,30.4,22.0,29.98,SSW,208,0.0,1.0,72,0.00,,,0.00,weatherlink.com 1.10,2013-03-23 06:07:00,
2013-03-23 02:22:00,30.0,23.0,29.97,SSW,207,1.0,1.0,74,0.00,,,0.00,weatherlink.com 1.10,2013-03-23 06:22:00,
2013-03-23 02:37:00,29.9,23.0,29.97,SW,231,0.0,2.0,75,0.00,,,0.00,weatherlink.com 1.10,2013-03-23 06:37:00,
2013-03-23 02:52:00,30.1,23.0,29.97,SW,217,0.0,2.0,75,0.00,,,0.00,weatherlink.com 1.10,2013-03-23 06:52:00,
2013-03-23 03:07:00,30.4,23.0,29.96,SSW,208,0.0,1.0,74,0.00,,,0.00,weatherlink.com 1.10,2013-03-23 07:07:00,
2013-03-23 03:22:00,30.3,23.0,29.96,SSW,193,0.0,1.0,75,0.00,,,0.00,weatherlink.com 1.10,2013-03-23 07:22:00,
2013-03-23 03:37:00,30.2,23.0,29.96,WNW,295,1.0,3.0,74,0.00,,,0.00,weatherlink.com 1.10,2013-03-23 07:37:00,
2013-03-23 03:52:00,31.0,23.0,29.96,WNW,300,2.0,5.0,72,0.00,,,0.00,weatherlink.com 1.10,2013-03-23 07:52:00,
2013-03-23 04:07:00,31.0,23.0,29.96,West,271,1.0,5.0,71,0.00,,,0.00,weatherlink.com 1.10,2013-03-23 08:07:00,
2013-03-23 04:22:00,31.4,23.0,29.96,NW,316,4.0,9.0,71,0.00,,,0.00,weatherlink.com 1.10,2013-03-23 08:22:00,
2013-03-23 04:37:00,31.4,23.0,29.96,West,262,4.0,8.0,71,0.00,,,0.00,weatherlink.com 1.10,2013-03-23 08:37:00,
2013-03-23 04:53:00,31.6,23.0,29.96,WNW,290,1.0,5.0,70,0.00,,,0.00,weatherlink.com 1.10,2013-03-23 08:53:00,
2013-03-23 05:08:00,31.7,23.0,29.96,NW,311,2.0,8.0,69,0.00,,,0.00,weatherlink.com 1.10,2013-03-23 09:08:00,
2013-03-23 05:23:00,31.8,22.0,29.96,NW,311,3.0,12.0,68,0.00,,,0.00,weatherlink.com 1.10,2013-03-23 09:23:00,
2013-03-23 05:38:00,32.1,23.0,29.97,NW,321,8.0,9.0,68,0.00,,,0.00,weatherlink.com 1.10,2013-03-23 09:38:00,
2013-03-23 05:53:00,32.4,23.0,29.97,WNW,300,6.0,13.0,67,0.00,,,0.00,weatherlink.com 1.10,2013-03-23 09:53:00,
2013-03-23 06:08:00,32.5,22.0,29.97,NNW,330,3.0,13.0,66,0.00,,,0.00,weatherlink.com 1.10,2013-03-23 10:08:00,
2013-03-23 06:23:00,32.5,23.0,29.97,NW,311,5.0,9.0,67,0.00,,,0.00,weatherlink.com 1.10,2013-03-23 10:23:00,
2013-03-23 06:38:00,32.1,22.0,29.97,WNW,293,1.0,8.0,67,0.00,,,0.00,weatherlink.com 1.10,2013-03-23 10:38:00,
2013-03-23 06:53:00,31.8,22.0,29.97,NW,304,2.0,8.0,68,0.00,,,0.00,weatherlink.com 1.10,2013-03-23 10:53:00,
2013-03-23 07:08:00,31.6,22.0,29.97,WNW,297,2.0,8.0,68,0.00,,,0.00,weatherlink.com 1.10,2013-03-23 11:08:00,
2013-03-23 07:23:00,31.3,22.0,29.98,North,353,1.0,7.0,69,0.00,,,0.00,weatherlink.com 1.10,2013-03-23 11:23:00,
2013-03-23 07:38:00,31.6,22.0,29.98,NW,323,4.0,8.0,69,0.00,,,0.00,weatherlink.com 1.10,2013-03-23 11:38:00,
2013-03-23 07:53:00,32.2,23.0,29.98,NW,325,5.0,9.0,69,0.00,,,0.00,weatherlink.com 1.10,2013-03-23 11:53:00,
2013-03-23 08:08:00,32.8,23.0,29.98,NW,311,2.0,10.0,68,0.00,,,0.00,weatherlink.com 1.10,2013-03-23 12:08:00,
2013-03-23 08:23:00,33.7,23.0,29.99,West,281,1.0,5.0,65,0.00,,,0.00,weatherlink.com 1.10,2013-03-23 12:23:00,
2013-03-23 08:38:00,34.5,23.0,29.98,WSW,250,5.0,8.0,63,0.00,,,0.00,weatherlink.com 1.10,2013-03-23 12:38:00,
2013-03-23 08:53:00,35.5,24.0,29.98,NW,314,2.0,6.0,62,0.00,,,0.00,weatherlink.com 1.10,2013-03-23 12:53:00,
2013-03-23 09:08:00,35.9,23.0,29.99,NW,309,5.0,12.0,59,0.00,,,0.00,weatherlink.com 1.10,2013-03-23 13:08:00,
2013-03-23 09:23:00,36.8,23.0,29.99,NW,322,0.0,8.0,58,0.00,,,0.00,weatherlink.com 1.10,2013-03-23 13:23:00,
2013-03-23 09:38:00,37.0,22.0,29.99,North,8,4.0,13.0,56,0.00,,,0.00,weatherlink.com 1.10,2013-03-23 13:38:00,
2013-03-23 09:53:00,37.5,22.0,29.99,NNE,20,8.0,16.0,54,0.00,,,0.00,weatherlink.com 1.10,2013-03-23 13:53:00,
2013-03-23 10:08:00,38.4,22.0,29.99,West,280,1.0,9.0,52,0.00,,,0.00,weatherlink.com 1.10,2013-03-23 14:08:00,
2013-03-23 10:23:00,39.0,23.0,29.99,NW,316,5.0,14.0,52,0.00,,,0.00,weatherlink.com 1.10,2013-03-23 14:23:00,
2013-03-23 10:38:00,39.5,22.0,29.99,WSW,240,11.0,16.0,50,0.00,,,0.00,weatherlink.com 1.10,2013-03-23 14:38:00,
2013-03-23 10:53:00,39.9,23.0,29.99,NNW,345,3.0,10.0,51,0.00,,,0.00,weatherlink.com 1.10,2013-03-23 14:53:00,
2013-03-23 11:08:00,39.9,23.0,29.99,WSW,256,4.0,17.0,51,0.00,,,0.00,weatherlink.com 1.10,2013-03-23 15:08:00,
2013-03-23 11:23:00,41.7,24.0,29.98,West,281,7.0,18.0,50,0.00,,,0.00,weatherlink.com 1.10,2013-03-23 15:23:00,
2013-03-23 11:38:00,40.1,22.0,29.98,WNW,285,5.0,14.0,48,0.00,,,0.00,weatherlink.com 1.10,2013-03-23 15:38:00,
2013-03-23 11:53:00,40.4,22.0,29.98,WNW,298,6.0,10.0,49,0.00,,,0.00,weatherlink.com 1.10,2013-03-23 15:53:00,
2013-03-23 12:08:00,42.2,24.0,29.97,NW,314,13.0,15.0,49,0.00,,,0.00,weatherlink.com 1.10,2013-03-23 16:08:00,
2013-03-23 12:23:00,41.7,23.0,29.97,West,267,3.0,14.0,48,0.00,,,0.00,weatherlink.com 1.10,2013-03-23 16:23:00,
2013-03-23 12:38:00,42.0,24.0,29.96,NW,314,5.0,13.0,49,0.00,,,0.00,weatherlink.com 1.10,2013-03-23 16:38:00,
2013-03-23 12:53:00,42.3,25.0,29.96,WSW,238,7.0,12.0,50,0.00,,,0.00,weatherlink.com 1.10,2013-03-23 16:53:00,
2013-03-23 13:09:00,43.1,24.0,29.95,NNE,22,1.0,14.0,48,0.00,,,0.00,weatherlink.com 1.10,2013-03-23 17:09:00,
2013-03-23 13:24:00,43.2,24.0,29.95,WSW,250,4.0,21.0,46,0.00,,,0.00,weatherlink.com 1.10,2013-03-23 17:24:00,
2013-03-23 13:39:00,44.3,25.0,29.94,NW,316,3.0,13.0,47,0.00,,,0.00,weatherlink.com 1.10,2013-03-23 17:39:00,
2013-03-23 13:54:00,44.5,24.0,29.94,WNW,302,6.0,11.0,45,0.00,,,0.00,weatherlink.com 1.10,2013-03-23 17:54:00,
2013-03-23 14:09:00,44.4,23.0,29.93,NW,309,7.0,19.0,43,0.00,,,0.00,weatherlink.com 1.10,2013-03-23 18:09:00,
2013-03-23 14:24:00,44.9,23.0,29.93,WNW,283,6.0,17.0,43,0.00,,,0.00,weatherlink.com 1.10,2013-03-23 18:24:00,
2013-03-23 14:39:00,45.1,24.0,29.92,NW,316,5.0,14.0,44,0.00,,,0.00,weatherlink.com 1.10,2013-03-23 18:39:00,
2013-03-23 14:54:00,45.1,24.0,29.92,WNW,295,1.0,20.0,44,0.00,,,0.00,weatherlink.com 1.10,2013-03-23 18:54:00,
2013-03-23 15:09:00,45.3,24.0,29.92,West,274,3.0,19.0,43,0.00,,,0.00,weatherlink.com 1.10,2013-03-23 19:09:00,
2013-03-23 15:24:00,45.1,23.0,29.92,WNW,301,11.0,20.0,42,0.00,,,0.00,weatherlink.com 1.10,2013-03-23 19:24:00,
2013-03-23 15:39:00,44.4,24.0,29.92,NW,307,9.0,21.0,44,0.00,,,0.00,weatherlink.com 1.10,2013-03-23 19:39:00,
2013-03-23 15:54:00,44.9,24.0,29.93,West,274,8.0,15.0,44,0.00,,,0.00,weatherlink.com 1.10,2013-03-23 19:54:00,
2013-03-23 16:09:00,45.0,24.0,29.92,WNW,294,1.0,22.0,44,0.00,,,0.00,weatherlink.com 1.10,2013-03-23 20:09:00,
2013-03-23 16:24:00,44.7,23.0,29.92,NW,316,7.0,21.0,43,0.00,,,0.00,weatherlink.com 1.10,2013-03-23 20:24:00,
2013-03-23 16:39:00,44.1,23.0,29.92,NNW,338,4.0,17.0,43,0.00,,,0.00,weatherlink.com 1.10,2013-03-23 20:39:00,
2013-03-23 16:54:00,44.1,23.0,29.92,NNW,347,5.0,15.0,44,0.00,,,0.00,weatherlink.com 1.10,2013-03-23 20:54:00,
2013-03-23 17:09:00,44.7,24.0,29.92,NE,47,1.0,17.0,44,0.00,,,0.00,weatherlink.com 1.10,2013-03-23 21:09:00,
2013-03-23 17:24:00,44.8,23.0,29.92,WNW,294,10.0,18.0,42,0.00,,,0.00,weatherlink.com 1.10,2013-03-23 21:24:00,
2013-03-23 17:39:00,44.5,23.0,29.93,WNW,292,5.0,17.0,43,0.00,,,0.00,weatherlink.com 1.10,2013-03-23 21:39:00,
2013-03-23 17:54:00,44.1,23.0,29.93,WNW,303,6.0,17.0,44,0.00,,,0.00,weatherlink.com 1.10,2013-03-23 21:54:00,
2013-03-23 18:09:00,43.8,22.0,29.94,WNW,298,6.0,11.0,43,0.00,,,0.00,weatherlink.com 1.10,2013-03-23 22:09:00,
2013-03-23 18:24:00,43.6,23.0,29.94,WSW,256,1.0,13.0,44,0.00,,,0.00,weatherlink.com 1.10,2013-03-23 22:24:00,
2013-03-23 18:54:00,42.1,22.0,29.95,WNW,296,8.0,15.0,45,0.00,,,0.00,weatherlink.com 1.10,2013-03-23 22:54:00,
2013-03-23 19:09:00,41.3,22.0,29.96,NW,325,3.0,16.0,47,0.00,,,0.00,weatherlink.com 1.10,2013-03-23 23:09:00,
2013-03-23 19:24:00,40.8,22.0,29.96,WNW,298,5.0,13.0,48,0.00,,,0.00,weatherlink.com 1.10,2013-03-23 23:24:00,
2013-03-23 19:39:00,40.2,22.0,29.96,NW,315,6.0,10.0,49,0.00,,,0.00,weatherlink.com 1.10,2013-03-23 23:39:00,
2013-03-23 19:54:00,39.9,22.0,29.97,NW,305,5.0,8.0,50,0.00,,,0.00,weatherlink.com 1.10,2013-03-23 23:54:00,
2013-03-23 20:09:00,39.4,22.0,29.96,NNW,336,2.0,9.0,51,0.00,,,0.00,weatherlink.com 1.10,2013-03-24 00:09:00,
2013-03-23 20:24:00,38.9,22.0,29.96,NW,314,2.0,11.0,52,0.00,,,0.00,weatherlink.com 1.10,2013-03-24 00:24:00,
2013-03-23 20:39:00,38.7,23.0,29.96,NW,304,2.0,10.0,53,0.00,,,0.00,weatherlink.com 1.10,2013-03-24 00:39:00,
2013-03-23 20:54:00,38.5,23.0,29.97,NW,309,6.0,12.0,53,0.00,,,0.00,weatherlink.com 1.10,2013-03-24 00:54:00,
2013-03-23 21:09:00,38.1,23.0,29.98,NW,311,4.0,9.0,54,0.00,,,0.00,weatherlink.com 1.10,2013-03-24 01:09:00,
2013-03-23 21:24:00,37.6,23.0,29.98,NW,304,1.0,6.0,55,0.00,,,0.00,weatherlink.com 1.10,2013-03-24 01:24:00,
2013-03-23 21:39:00,37.2,22.0,29.99,WNW,284,5.0,9.0,55,0.00,,,0.00,weatherlink.com 1.10,2013-03-24 01:39:00,
2013-03-23 21:54:00,36.8,23.0,29.99,West,271,2.0,7.0,57,0.00,,,0.00,weatherlink.com 1.10,2013-03-24 01:54:00,
2013-03-23 22:09:00,36.3,23.0,29.99,NW,307,2.0,5.0,58,0.00,,,0.00,weatherlink.com 1.10,2013-03-24 02:09:00,
2013-03-23 22:24:00,36.0,23.0,29.99,NW,307,0.0,6.0,59,0.00,,,0.00,weatherlink.com 1.10,2013-03-24 02:24:00,
2013-03-23 22:39:00,35.6,22.0,29.99,WNW,291,3.0,4.0,59,0.00,,,0.00,weatherlink.com 1.10,2013-03-24 02:39:00,
2013-03-23 22:54:00,35.1,22.0,29.99,WNW,302,1.0,2.0,60,0.00,,,0.00,weatherlink.com 1.10,2013-03-24 02:54:00,
2013-03-23 23:09:00,34.2,22.0,29.98,NW,324,0.0,2.0,62,0.00,,,0.00,weatherlink.com 1.10,2013-03-24 03:09:00,
2013-03-23 23:24:00,33.3,23.0,29.99,NW,304,0.0,2.0,65,0.00,,,0.00,weatherlink.com 1.10,2013-03-24 03:24:00,
2013-03-23 23:39:00,32.8,23.0,29.99,West,269,0.0,2.0,66,0.00,,,0.00,weatherlink.com 1.10,2013-03-24 03:39:00,
2013-03-23 23:54:00,32.7,22.0,30.00,SE,139,0.0,1.0,66,0.00,,,0.00,weatherlink.com 1.10,2013-03-24 03:54:00,